Location: Derby
(52.9213°N, 1.4761°W)
Time: 17:58:52
(UTC+01:00)

Tiros 1 - Pass Details

Date: 20 May 2025
Orbit: 620 x 651 km, 48.4° (Epoch: 13 June)

Event Time Altitude Azimuth Distance (km) Brightness Sun altitude
Rises 18:34:31 0° 220° (SW) 2,887 10.9 20.1°
Reaches altitude 10° 18:37:07 10° 207° (SSW) 1,987 10.0 19.7°
Maximum altitude 18:40:50 25° 152° (SSE) 1,268 8.5 19.2°
Drops below altitude 10° 18:44:36 10° 97° (E) 2,006 9.1 18.6°
Sets 18:47:14 0° 85° (E) 2,921 9.9 18.2°
